Weather History for Kenansville, NC

Change the Weather History Date:

Saturday, May 18, 2013

  Actual Average (KGSB) Record (KGSB)
Temperature  
Mean Temperature 71 °F -  
Max Temperature 83 °F 80 °F 93 °F (1997)
Min Temperature 59 °F 59 °F 52 °F (2007)
Cooling Degree Days 6    
Growing Degree Days 21 (Base 50)    
Moisture  
Dew Point 63 °F    
Average Humidity 75    
Maximum Humidity 94    
Minimum Humidity 48    
Precipitation  
Precipitation 0.00 in - - ()
Sea Level Pressure  
Sea Level Pressure 30.14 in    
Wind  
Wind Speed 0 mph (South)    
Max Wind Speed 6 mph    
Max Gust Speed -    
Visibility 9 miles    
Events Rain    
Averages and records for this station are not official NWS values.
T = Trace of Precipitation, MM = Missing Value Source: NWS Daily Summary

Daily Weather History Graph

Daily Weather History Graph

Search for Another Location

Airport:

Trip Planner

Search our weather history database for the weather conditions in past years. The results will help you decide how hot, cold, wet, or windy it might be!

Date:

Astronomy

May. 18, 2013 Rise Set
Actual Time 6:06 AM EDT 8:11 PM EDT
Civil Twilight 5:37 AM EDT 8:39 PM EDT
Nautical Twilight 5:03 AM EDT 9:14 PM EDT
Astronomical Twilight 4:26 AM EDT 9:51 PM EDT
Moon 1:28 PM EDT (5/18) 1:41 AM EDT (5/18)
Length of Visible Light 15h 01m
Length of Day
14h 05m
First Quarter, 55% of the Moon is Illuminated
May 18
First Quarter
May 25
Full
May 31
Last Quarter
Jun 8
New
Jun 16
First Quarter

Hourly Weather History & Observations

Time (EDT) Temp. Heat Index Dew Point Humidity Pressure Visibility Wind Dir Wind Speed Gust Speed Precip Events Conditions
12:15 AM 68.0 °F - 61.7 °F 80% 30.11 in 10.0 mi Calm Calm - N/A   Clear
12:35 AM 67.3 °F - 61.7 °F 82% 30.12 in 10.0 mi Calm Calm - N/A   Clear
12:55 AM 66.0 °F - 61.3 °F 85% 30.12 in 10.0 mi Calm Calm - N/A   Clear
1:15 AM 65.7 °F - 61.2 °F 85% 30.12 in 10.0 mi Calm Calm - N/A   Clear
1:35 AM 64.6 °F - 61.0 °F 88% 30.12 in 10.0 mi Calm Calm - N/A   Clear
1:55 AM 64.4 °F - 61.0 °F 89% 30.11 in 10.0 mi Calm Calm - N/A   Clear
2:15 AM 63.5 °F - 60.8 °F 91% 30.11 in 7.0 mi Calm Calm - N/A   Clear
2:35 AM 63.5 °F - 60.6 °F 90% 30.11 in 7.0 mi Calm Calm - N/A   Clear
2:55 AM 63.1 °F - 60.6 °F 91% 30.11 in 7.0 mi Calm Calm - N/A   Clear
3:15 AM 63.0 °F - 60.4 °F 91% 30.11 in 7.0 mi Calm Calm - N/A   Clear
3:35 AM 62.6 °F - 60.4 °F 93% 30.11 in 7.0 mi Calm Calm - N/A   Scattered Clouds
3:55 AM 62.6 °F - 60.1 °F 91% 30.11 in 7.0 mi Calm Calm - N/A   Scattered Clouds
4:15 AM 62.1 °F - 60.1 °F 93% 30.11 in 7.0 mi Calm Calm - N/A   Clear
4:35 AM 61.7 °F - 59.5 °F 93% 30.11 in 7.0 mi Calm Calm - N/A   Clear
4:55 AM 61.2 °F - 59.4 °F 94% 30.11 in 7.0 mi Calm Calm - N/A   Clear
5:15 AM 61.0 °F - 59.0 °F 93% 30.12 in 7.0 mi Calm Calm - N/A   Clear
5:35 AM 60.6 °F - 58.6 °F 93% 30.12 in 7.0 mi Calm Calm - N/A   Clear
5:55 AM 60.3 °F - 58.5 °F 94% 30.13 in 7.0 mi Calm Calm - N/A   Scattered Clouds
6:15 AM 59.9 °F - 58.1 °F 94% 30.13 in 7.0 mi Calm Calm - N/A   Scattered Clouds
6:35 AM 60.3 °F - 58.6 °F 94% 30.14 in 7.0 mi Calm Calm - N/A   Scattered Clouds
6:55 AM 61.7 °F - 59.4 °F 92% 30.14 in 7.0 mi Calm Calm - N/A   Mostly Cloudy
7:15 AM 63.5 °F - 59.9 °F 88% 30.15 in 10.0 mi SSE 3.5 mph - N/A   Mostly Cloudy
7:35 AM 64.4 °F - 60.6 °F 88% 30.16 in 10.0 mi Calm Calm - N/A   Mostly Cloudy
7:55 AM 65.8 °F - 61.2 °F 85% 30.16 in 10.0 mi Calm Calm - N/A Rain Light Rain
8:15 AM 66.6 °F - 61.7 °F 84% 30.16 in 10.0 mi Calm Calm - N/A   Mostly Cloudy
8:35 AM 68.2 °F - 62.4 °F 82% 30.17 in 10.0 mi Calm Calm - N/A   Mostly Cloudy
8:55 AM 68.2 °F - 62.2 °F 81% 30.17 in 10.0 mi Calm Calm - N/A   Scattered Clouds
9:15 AM 70.7 °F - 63.1 °F 77% 30.18 in 10.0 mi Calm Calm - N/A   Clear
9:35 AM 73.4 °F - 63.5 °F 71% 30.18 in 10.0 mi SSW 3.5 mph - N/A   Clear
9:55 AM 75.6 °F - 64.0 °F 67% 30.18 in 10.0 mi SSW 3.5 mph - N/A   Clear
10:15 AM 76.3 °F - 63.7 °F 65% 30.18 in 10.0 mi SW 5.8 mph - N/A   Clear
10:35 AM 77.2 °F - 63.9 °F 63% 30.18 in 10.0 mi SW 5.8 mph - N/A   Scattered Clouds
10:55 AM 77.7 °F - 63.7 °F 62% 30.18 in 10.0 mi Calm Calm - N/A   Scattered Clouds
11:15 AM 78.6 °F - 63.9 °F 60% 30.18 in 10.0 mi Calm Calm - N/A   Mostly Cloudy
11:35 AM 78.8 °F - 63.7 °F 60% 30.18 in 10.0 mi Calm Calm - N/A   Scattered Clouds
11:55 AM 79.2 °F - 63.3 °F 58% 30.17 in 10.0 mi Calm Calm - N/A   Clear
12:15 PM 79.7 °F - 63.9 °F 58% 30.17 in 10.0 mi Calm Calm - N/A   Scattered Clouds
12:35 PM 79.7 °F - 64.0 °F 59% 30.16 in 10.0 mi Calm Calm - N/A   Scattered Clouds
12:55 PM 79.5 °F - 63.7 °F 58% 30.16 in 10.0 mi Calm Calm - N/A   Mostly Cloudy
1:15 PM 81.1 °F 82.7 °F 64.2 °F 56% 30.15 in 10.0 mi Calm Calm - N/A   Scattered Clouds
1:35 PM 81.0 °F 82.1 °F 62.6 °F 53% 30.15 in 10.0 mi Calm Calm - N/A   Scattered Clouds
1:55 PM 81.9 °F 82.8 °F 62.2 °F 51% 30.13 in 10.0 mi Calm Calm - N/A   Clear
2:15 PM 82.4 °F 83.4 °F 62.8 °F 51% 30.13 in 10.0 mi Calm Calm - N/A   Clear
2:35 PM 82.0 °F 83.1 °F 62.6 °F 52% 30.12 in 10.0 mi Calm Calm - N/A   Clear
3:15 PM 83.5 °F 84.1 °F 62.1 °F 48% 30.11 in 10.0 mi Calm Calm - N/A   Scattered Clouds
3:35 PM 82.2 °F 83.2 °F 62.6 °F 51% 30.11 in 10.0 mi Calm Calm - N/A   Scattered Clouds
3:55 PM 82.2 °F 83.2 °F 62.4 °F 51% 30.10 in 10.0 mi Calm Calm - N/A   Scattered Clouds
4:15 PM 82.4 °F 83.2 °F 62.1 °F 50% 30.10 in 10.0 mi Calm Calm - N/A   Scattered Clouds
4:35 PM 82.6 °F 83.2 °F 61.7 °F 49% 30.10 in 10.0 mi Calm Calm - N/A   Scattered Clouds
4:55 PM 82.9 °F 83.7 °F 61.9 °F 49% 30.09 in 10.0 mi Calm Calm - N/A   Scattered Clouds
5:15 PM 82.8 °F 83.6 °F 62.6 °F 50% 30.09 in 10.0 mi SSE 4.6 mph - N/A   Scattered Clouds
5:35 PM 81.5 °F 83.1 °F 64.4 °F 56% 30.09 in 10.0 mi SSE 5.8 mph - N/A   Scattered Clouds
6:15 PM 80.1 °F 81.9 °F 65.1 °F 60% 30.10 in 10.0 mi SE 4.6 mph - N/A   Scattered Clouds
6:35 PM 79.3 °F - 64.8 °F 61% 30.10 in 10.0 mi Calm Calm - N/A   Scattered Clouds
6:55 PM 78.4 °F - 64.4 °F 62% 30.11 in 10.0 mi Calm Calm - N/A   Clear
7:15 PM 77.4 °F - 64.8 °F 65% 30.11 in 10.0 mi SE 4.6 mph - N/A   Clear
7:35 PM 76.5 °F - 64.9 °F 67% 30.12 in 10.0 mi Calm Calm - N/A   Clear
7:55 PM 75.6 °F - 64.6 °F 69% 30.13 in 10.0 mi Calm Calm - N/A   Clear
8:15 PM 73.8 °F - 65.3 °F 75% 30.13 in 10.0 mi Calm Calm - N/A   Clear
8:35 PM 71.4 °F - 65.5 °F 81% 30.14 in 10.0 mi Calm Calm - N/A   Clear
8:55 PM 70.3 °F - 65.5 °F 85% 30.15 in 10.0 mi Calm Calm - N/A   Clear
9:15 PM 69.3 °F - 65.3 °F 87% 30.15 in 10.0 mi Calm Calm - N/A   Scattered Clouds
9:35 PM 68.5 °F - 65.3 °F 89% 30.15 in 10.0 mi Calm Calm - N/A   Scattered Clouds
9:55 PM 68.0 °F - 65.1 °F 90% 30.15 in 10.0 mi Calm Calm - N/A   Clear
10:15 PM 68.0 °F - 64.8 °F 89% 30.16 in 10.0 mi Calm Calm - N/A   Clear
10:35 PM 68.0 °F - 64.9 °F 90% 30.16 in 10.0 mi Calm Calm - N/A   Clear
10:55 PM 68.0 °F - 64.9 °F 90% 30.16 in 10.0 mi Calm Calm - N/A   Clear
11:15 PM 67.8 °F - 64.8 °F 90% 30.16 in 10.0 mi Calm Calm - N/A   Clear
11:35 PM 67.5 °F - 64.6 °F 90% 30.15 in 10.0 mi Calm Calm - N/A   Clear